Location: Seattle
(47.6064°N, 122.3308°W)
Time: 04:43:48
(UTC-08:00)

S-56A Canister/Altair - Pass Details

Date: 30 November 2020
Orbit: 633 x 2499 km, 38.9° (Epoch: 23 January)

Event Time Altitude Azimuth Distance (km) Brightness Sun altitude
Rises 20:33:45 0° 250° (WSW) 5,536 12.5 -41.9°
Reaches altitude 10° 20:37:57 10° 246° (WSW) 4,265 11.7 -42.6°
Enters shadow 20:44:45 35° 222° (SW) 2,323 9.9 -43.7°
Maximum altitude 20:48:04 47° 178° (S) 1,787 - -44.2°
Drops below altitude 10° 20:54:53 10° 106° (ESE) 2,892 - -45.3°
Sets 20:57:13 0° 100° (E) 3,648 - -45.7°
